Regional Weather Roundup
Issued by NWS

Home | Current Version | Previous Version | Graphics & Text | Print | Product List | Glossary On
Versions: 1 2 3 4 5 6 7 8 9 10 11 12 13 14 15 16 17 18 19 20 21 22 23 24 25 26 27 28 29 30 31 32 33 34 35 36 37 38 39 40 41 42 43 44 45 46 47 48 49 50
000
ASUS45 KBOU 281207
RWRCO

WEATHER ROUNDUP FOR COLORADO
NATIONAL WEATHER SERVICE DENVER/BOULDER CO
500 AM MST FRI NOV 28 2014

NOTE: "FAIR" INDICATES FEW OR NO CLOUDS BELOW 12000 FEET WITH NO
SIGNIFICANT WEATHER AND/OR OBSTRUCTIONS TO VISIBILITY.

COZ001>005-013-030-031-281300-
...NORTHWEST COLORADO...

CITY           SKY/WX    TMP DP  RH WIND       PRES   REMARKS
CRAIG          PTCLDY    24  20  84 SE3       30.17F
HAYDEN         PTCLDY    27  19  74 E9        30.17S WCI  17
MEEKER         MOCLDY    30  22  72 CALM      30.19S
MOUNT WERNER   NOT AVBL
STEAMBOAT SPGS   N/A     18  17  93 CALM      30.18F
WALDEN         CLEAR     34  14  44 E5        30.14S WCI  30
$$

COZ006>008-011-281300-
...WEST CENTRAL VALLEYS...

CITY           SKY/WX    TMP DP  RH WIND       PRES   REMARKS
GRAND JUNCTION PTCLDY    21  19  92 E3        30.23F
MONTROSE       PTCLDY    26  20  77 S8        30.25F WCI  18
EAGLE          MOCLDY    25  23  93 CALM      30.25F
RIFLE          MOCLDY    28  24  85 CALM      30.25F
DELTA          PTCLDY    28  22  78 CALM      30.25S
NUCLA          PTCLDY    30  21  69 E9        30.29S WCI  22
$$

COZ017>023-064>068-281300-
...SOUTHWEST COLORADO...

CITY           SKY/WX    TMP DP  RH WIND       PRES   REMARKS
DURANGO        PTCLDY    22  16  78 N7        30.30F WCI  13
CORTEZ         CLEAR     20  15  81 E6        30.28F WCI  12
PAGOSA SPRINGS PTCLDY    24  18  78 CALM      30.33F
TELLURIDE      PTCLDY    33  11  40 E7        30.36F WCI  27
WOLF CREEK PAS CLEAR     28   3  34 MISG      30.40F
$$

COZ009-010-012-014-032>034-037-058>063-281300-
...CENTRAL COLORADO...

CITY           SKY/WX    TMP DP  RH WIND       PRES   REMARKS
ASPEN          MOCLDY    29  19  66 S9        30.23F WCI  20
BUENA VISTA    PTCLDY    47   1  15 W13G26    30.17F
COPPER MTN     LGT SNOW  34   1  25 W28G47    30.32F WCI  20
BERTHOUD PASS  NOT AVBL
COTTONWOOD PAS PTCLDY    46 -13   8 W32G54    30.19F
GUNNISON       PTCLDY    12   7  79 CALM      30.38S
KREMMLING      PTCLDY    19  18  93 CALM      30.22F
LEADVILLE      PTCLDY    31   6  35 VRB6      30.26F WCI  25
MONARCH PASS   PTCLDY    28   3  34 W33G39    30.46S WCI  12
SALIDA         PTCLDY    47   8  20 SW12G18   30.23F
SUNLIGHT       CLOUDY    30  19  64 CALM      30.33F
WILKERSON PASS PTCLDY    34   0  23 W12G23    30.28S WCI  25
$$

COZ069>075-281300-
...SAN LUIS VALLEY/SANGRE DE CRISTO MOUNTAINS...

CITY           SKY/WX    TMP DP  RH WIND       PRES   REMARKS
ALAMOSA        MOCLDY     7   3  84 CALM      30.27F
LA VETA PASS   PTCLDY    32  10  40 S15G31    30.27F WCI  22
SAGUACHE       PTCLDY    23  16  74 N8        30.28F WCI  14
$$

COZ035-036-038>040-281300-
...NORTHERN COLORADO FRONT RANGE...

CITY           SKY/WX    TMP DP  RH WIND       PRES   REMARKS
DENVER INTL AP CLOUDY    48  15  26 S14       29.98F
DMNS CITY PARK   N/A     43  15  32 S6G13     29.99S
AURORA         MOCLDY    48  13  24 S12       30.00F
FRONT RANGE AP CLOUDY    37  23  56 S18       29.99F
ERIE MUNI ARPT CLOUDY    37  20  49 CALM      29.96F
BOULDER MUN AP CLOUDY    48  16  27 NW5       29.97S
CENTENNIAL     CLOUDY    42  16  34 SE3       30.01F
BROOMFIELD     CLOUDY    50  14  23 NW5       29.99F
FORT COLLINS   MOCLDY    36  19  51 N7        29.96F
LONGMONT       MOCLDY    49  15  26 E3        29.97F
$$

COZ041-046-047-076>085-087-088-281300-
...PIKES PEAK/PALMER DIVIDE AND SOUTHERN FOOTHILLS...

CITY           SKY/WX    TMP DP  RH WIND       PRES   REMARKS
COLO. SPRINGS  CLOUDY    43  14  31 NE5       30.07F
A. F. ACADEMY  CLOUDY    40  13  34 VRB1      30.08F
ELLICOTT       NOT AVBL
FALCON         NOT AVBL
FORT CARSON    CLOUDY    40  17  39 NW7       30.05F
LIMON          PTCLDY    33  17  51 N6        30.01F WCI  28
MONUMENT HILL  CLOUDY    45  10  24 SW12      30.07F
TRINIDAD       PTCLDY    34  21  59 NW12      30.11F WCI  25
$$

COZ042>045-048>051-090-091-281300-
...NORTHEAST COLORADO...

CITY           SKY/WX    TMP DP  RH WIND       PRES   REMARKS
GREELEY ARPT   MOCLDY    25  18  74 CALM      29.96F
AKRON          MOCLDY    46  21  37 SW16      29.94F
BURLINGTON     PTCLDY    40  19  43 W12       29.95F
WRAY           PTCLDY    35  26  69 SW10      29.92F WCI  27
STERLING       MOCLDY    34  30  86 CALM      29.93S
HOLYOKE        PTCLDY    32  27  80 W7        29.91F WCI  26
FORT MORGAN    MOCLDY    35  23  61 W8        29.96S WCI  29
$$

COZ086-089-092>099-281300-
...SOUTHEAST COLORADO...

CITY           SKY/WX    TMP DP  RH WIND       PRES   REMARKS
PUEBLO         MOCLDY    33  22  63 NW8       30.04F WCI  26
LA JUNTA       MOCLDY    41  23  48 SW6       30.01F
LAMAR          MOCLDY    31  22  69 W3        29.98F
SPRINGFIELD      N/A     40  17  39 W3        30.01F
$$



USA.gov is the U.S. government's official web portal to all federal, state and local government web resources and services.